Tracking 30308 objects as of 19-Apr-2025
HD Live streaming from Space Station
objects crossing your sky now

GONETS M 20

Track GONETS M 20 now!
10-day predictions


NORAD ID: 47227
Int'l Code: 2020-091A
Perigee: 1,485.3 km
Apogee: 1,517.7 km
Inclination: 82.5 °
Period: 115.9 minutes
Semi major axis: 7872 km
RCS: Unknown
Launch date: December 3, 2020
Source: Commonwealth of Independent States (former USSR) (CIS)
Launch site: PLESETSK MISSILE AND SPACE COMPLEX (PKMTR)
Your satellite tracking list
Your tracking list is empty




NASA's NSSDC Master Catalog

Two Line Element Set (TLE):
1 47227U 20091A   25109.26559189  .00000029  00000-0  13554-3 0  9998
2 47227  82.5074 205.9157 0020582  30.1328 330.0931 12.42895134198537
Source of the keplerian elements: AFSPC